Location: Unspecified
(0.0000°N, 0.0000°E)
Time: 09:40:10
(UTC+00:00)

ARIANE 1 DEB - Pass Details

Date: 15 February 2026
Orbit: 1090 x 21662 km, 16.1° (Epoch: 9 December)

Event Time Altitude Azimuth Distance (km) Brightness Sun altitude
Rises 05:40:35 0° 254° (WSW) 25,107 ? -8.2°
Reaches altitude 10° 06:48:31 10° 256° (WSW) 16,059 ? 8.4°
Maximum altitude 07:38:30 70° 338° (NNW) 2,678 ? 20.6°
Drops below altitude 10° 07:46:48 10° 62° (ENE) 3,519 ? 22.6°
Sets 07:48:45 0° 65° (ENE) 4,208 ? 23.0°
